, AK

(GMT )
Deadhorse

Weather History for PASC - October, 2011

Change the Weather History Date:

Thursday, October 27, 2011

  Actual Average Record
Temperature  
Mean Temperature 20 °F -  
Max Temperature 23 °F 12 °F 33 °F (2012)
Min Temperature 17 °F 0 °F -27 °F (1996)
Degree Days  
Heating Degree Days 45    
Moisture  
Dew Point 15 °F    
Average Humidity 83    
Maximum Humidity 93    
Minimum Humidity 72    
Precipitation  
Precipitation 0.00 in - - ()
Sea Level Pressure  
Sea Level Pressure 29.69 in    
Wind  
Wind Speed 17 mph (East)    
Max Wind Speed 23 mph    
Max Gust Speed 30 mph    
Visibility 6 miles    
Events Snow    
Averages and records for this station are not official NWS values.
T = Trace of Precipitation, MM = Missing Value Source: NWS Daily Summary

Daily Weather History Graph

Daily Weather History Graph

Search for Another Location

Airport or City:

Trip Planner

Search our weather history database for the weather conditions in past years. The results will help you decide how hot, cold, wet, or windy it might be!

Date:

Astronomy

Oct. 27, 2011 Rise Set
Actual Time 10:01 AM AKDT 5:11 PM AKDT
Civil Twilight 8:51 AM AKDT 6:22 PM AKDT
Nautical Twilight 7:38 AM AKDT 7:35 PM AKDT
Astronomical Twilight 6:26 AM AKDT 8:46 PM AKDT
Moon No Moon Rise No Moon Set
Length of Visible Light 9h 31m
Length of Day
7h 09m
New Moon, 2% of the Moon is Illuminated
Oct 27
New Moon
Nov 2
First Quarter
Nov 10
Full
Nov 18
Last Quarter
Nov 24
New

Hourly Weather History & Observations

Time (AKDT) Temp. Windchill Dew Point Humidity Pressure Visibility Wind Dir Wind Speed Gust Speed Precip Events Conditions
12:53 AM 23.0 °F 7.6 °F 17.1 °F 78% 29.70 in 9.0 mi ENE 21.9 mph - 0.00 in Snow Light Snow
1:53 AM 23.0 °F 9.2 °F 18.0 °F 81% 29.71 in 7.0 mi East 17.3 mph - 0.00 in Snow Light Snow
2:53 AM 21.9 °F 5.8 °F 15.1 °F 75% 29.72 in 9.0 mi East 23.0 mph - 0.00 in Snow Light Snow
3:53 AM 21.0 °F 4.6 °F 14.0 °F 74% 29.72 in 9.0 mi East 23.0 mph 29.9 mph 0.00 in Snow Light Snow
4:53 AM 21.0 °F 5.4 °F 14.0 °F 74% 29.73 in 9.0 mi East 20.7 mph - 0.00 in Snow Light Snow
5:53 AM 21.0 °F 4.6 °F 14.0 °F 74% 29.72 in 9.0 mi ENE 23.0 mph - 0.00 in Snow Light Snow
6:53 AM 21.9 °F 6.9 °F 14.0 °F 72% 29.72 in 7.0 mi ENE 19.6 mph - 0.00 in   Overcast
7:53 AM 19.9 °F 4.8 °F 14.0 °F 78% 29.72 in 7.0 mi East 18.4 mph - N/A   Overcast
8:53 AM 19.9 °F 4.8 °F 12.9 °F 74% 29.72 in 7.0 mi East 18.4 mph - N/A   Overcast
9:53 AM 19.0 °F 4.5 °F 12.9 °F 77% 29.71 in 9.0 mi East 16.1 mph - N/A   Overcast
10:53 AM 19.9 °F 5.2 °F 15.1 °F 81% 29.71 in 7.0 mi East 17.3 mph - 0.00 in Snow Light Snow
11:53 AM 19.9 °F 6.2 °F 15.1 °F 81% 29.71 in 9.0 mi East 15.0 mph - 0.00 in Snow Light Snow
12:53 PM 19.9 °F 6.7 °F 15.1 °F 81% 29.72 in 9.0 mi East 13.8 mph - 0.00 in Snow Light Snow
1:53 PM 19.9 °F 5.7 °F 14.0 °F 78% 29.72 in 7.0 mi East 16.1 mph - 0.00 in Snow Light Snow
2:53 PM 19.0 °F 4.5 °F 14.0 °F 81% 29.71 in 7.0 mi East 16.1 mph - 0.00 in Snow Light Snow
3:53 PM 19.0 °F 5.6 °F 14.0 °F 81% 29.70 in 9.0 mi East 13.8 mph - 0.00 in Snow Light Snow
4:53 PM 18.0 °F 3.6 °F 15.1 °F 88% 29.70 in 2.0 mi East 15.0 mph - 0.00 in Snow Light Snow
5:53 PM 18.0 °F 4.8 °F 15.1 °F 88% 29.68 in 3.0 mi ESE 12.7 mph - 0.00 in Snow Light Snow
6:06 PM 17.6 °F 3.7 °F 14.0 °F 86% 29.67 in 3.0 mi East 13.8 mph - 0.00 in Snow Light Snow
6:25 PM 17.6 °F 3.7 °F 14.0 °F 86% 29.67 in 3.0 mi East 13.8 mph - 0.00 in Snow Light Snow
6:39 PM 17.6 °F 5.7 °F 14.0 °F 86% 29.67 in 2.0 mi East 10.4 mph - 0.00 in Snow Light Snow
6:53 PM 17.1 °F 5.0 °F 14.0 °F 88% 29.68 in 2.0 mi East 10.4 mph - 0.00 in Snow Light Snow
7:00 PM 17.6 °F 6.4 °F 14.0 °F 86% 29.67 in 5.0 mi East 9.2 mph - 0.00 in Snow Light Snow
7:53 PM 18.0 °F 5.4 °F 14.0 °F 84% 29.68 in 5.0 mi East 11.5 mph - 0.00 in Snow Light Snow
8:15 PM 17.6 °F 6.4 °F 15.8 °F 93% 29.66 in 2.5 mi East 9.2 mph - 0.00 in Snow Light Snow
8:43 PM 17.6 °F 6.4 °F 15.8 °F 93% 29.66 in 2.5 mi East 9.2 mph - 0.00 in Snow Light Snow
8:53 PM 17.1 °F 5.8 °F 15.1 °F 92% 29.67 in 3.0 mi East 9.2 mph - 0.00 in Snow Light Snow
9:14 PM 17.6 °F 7.3 °F 15.8 °F 93% 29.66 in 4.0 mi ENE 8.1 mph - 0.00 in Snow Light Snow
9:53 PM 17.1 °F 7.6 °F 15.1 °F 92% 29.66 in 4.0 mi NE 6.9 mph - 0.00 in Snow Light Snow
10:53 PM 17.1 °F 6.6 °F 15.1 °F 92% 29.65 in 2.0 mi NE 8.1 mph - 0.00 in Snow Light Snow
11:53 PM 17.1 °F 6.6 °F 15.1 °F 92% 29.64 in 5.0 mi NE 8.1 mph - 0.00 in Snow Light Snow